Regional Weather Roundup
Issued by NWS

Home | Current Version | Previous Version | Graphics & Text | Print | Product List | Glossary On
Versions: 1 2 3 4 5 6 7 8 9 10 11 12 13 14 15 16 17 18 19 20 21 22 23 24 25 26 27 28 29 30 31 32 33 34 35 36 37 38 39 40 41 42 43 44 45 46 47 48 49
000
ASUS45 KSLC 020610
RWRUT

UTAH REGIONAL WEATHER ROUNDUP
NATIONAL WEATHER SERVICE SALT LAKE CITY UT
1200 AM MDT THU OCT 02 2014

UTZ001>011-023>025-020700-

NORTHERN UTAH

CITY           SKY/WX    TMP DP  RH WIND       PRES   REMARKS
HILL AFB       CLEAR     43  35  71 E13       30.21F
LOGAN          NOT AVBL
OGDEN          CLEAR     43  37  79 S8        30.20F
PROVO AIRPORT  CLEAR     43  36  75 SE6       30.24R
SALT LAKE CITY CLEAR     45  36  70 SE9       30.20F
VERNAL         PTCLDY    41  29  62 NW8       30.18S
WENDOVER       CLEAR     48  36  61 CALM      30.22S
HEBER CITY     CLEAR     36  32  87 CALM      30.25S
WEST JORDAN    CLEAR     43  34  70 SW8       30.22S

$$

UTZ012>022-026-027-020700-

SOUTHERN UTAH

CITY           SKY/WX    TMP DP  RH WIND       PRES   REMARKS
BRYCE CANYON   PTCLDY    35  19  52 N10       30.25R WCI  27
CEDAR CITY     CLEAR     45  24  43 N10G18    30.21R
MILFORD        CLEAR     44  33  65 NW10      30.23R
MOAB/CYNLANDS  CLEAR     46  37  71 NW6       30.15R
PRICE          CLEAR     45  27  49 VRB7G18   30.21R
ST GEORGE      CLEAR     63  27  25 N15       30.12R
KANAB            N/A     50  23  34 N15G21    30.20R

$$

REGIONAL REPORTS     COLORADO/ARIZONA

CITY           SKY/WX    TMP DP  RH WIND       PRES   REMARKS
CRAIG, CO      CLOUDY    38  34  85 W8        30.20R WCI  32
GRAND JUNCTION CLOUDY    44  42  93 W6        30.18R
RIFLE          MOCLDY    41  38  89 W3        30.19R
MONTROSE       MOCLDY    41  39  93 E8        30.19R
CORTEZ         PTCLDY    46  30  53 N5        30.14R
PAGE, AZ       CLEAR     57  23  26 NW7       30.12R
GRAND CANYON   CLEAR     34  30  85 CALM      30.19R
KINGMAN        CLEAR     59  35  40 NE9       30.06R
FLAGSTAFF      CLEAR     41  32  70 W5        30.19R

$$

REGIONAL REPORTS    NEVADA/IDAHO/WYOMING

CITY           SKY/WX    TMP DP  RH WIND       PRES   REMARKS
LAS VEGAS, NV  CLEAR     70  28  21 NE7       30.02R
ELY            CLEAR     33  23  66 E3        30.26S
ELKO           CLEAR     37  26  64 W3        30.24S
POCATELLO, ID  CLEAR     47  30  51 SW12      30.18S
BURLEY         CLEAR     42  32  67 SW12      30.18R
EVANSTON, WY   PTCLDY    33  29  85 SW9       30.25S WCI  25
ROCK SPRINGS   CLEAR     34  28  79 W13       30.19R WCI  25

$$



USA.gov is the U.S. government's official web portal to all federal, state and local government web resources and services.